Weather in Yuchka

Russia / Vologda Oblast     60°27′58″N   40°44′55″E
temp.,
°C
wind,
m/s
gust,
m/s
humid.,
%
clouds,
%
prec.,
mm/h
press.,
hPa
HPBL,
m
15 may, sat
sat1500:00+11ese117931 0.0 101511
03:00+10ese2286100 0.0 101530
06:00+13ese248564 0.1 1014163
09:00+18se356899 0.1 1013854
12:00+21se3453100 0.0 10121415
15:00+20se257514 0.7 1009376
18:00+18sse4983100 1.8 1007381
21:00+15sse4109290 2.7 1007541
16 may, sun
sun1600:00+13sse3997100 2.3 1006360
03:00+13s41297100 2.3 1005431
06:00+13s4119411 0.0 1005487
09:00+17ssw510704 0.0 10061002
12:00+19ssw596691 0.5 10061729
15:00+18sw59736 2.1 10061316
18:00+17sw5108398 1.4 10071006
21:00+13sw3109657 1.7 1008324
17 may, mon
mon1700:00+12sw31096100 0.2 1009328
03:00+12w379560 0.3 1012416
06:00+12sw249317 0.0 1014242
09:00+16sw35701 0.0 1015745
12:00+20wsw46500 0.0 10151533
15:00+22w35435 0.0 10151963
18:00+21wnw1353100 0.0 10151320
21:00+15ese1174100 0.0 101611
18 may, tue
tue1800:00+13ese228472 0.0 101634
03:00+12ese2689100 0.0 1016111
06:00+15ese31082100 0.0 1015303
09:00+20se4963100 0.0 1014625
12:00+25se5743100 0.0 10131298
15:00+27se4938100 0.0 10122324
18:00+25se4104283 0.0 10111126
21:00+17ese3127344 0.0 1011250
19 may, wed
wed1900:00+17se415695 0.0 1010408
03:00+15se414770 0.0 1009360
06:00+17se4137216 0.0 1008429
09:00+22sse51355100 0.0 1007874
12:00+26s694153 0.0 10071441
15:00+27sse51237100 0.0 10062262
18:00+26sse41543100 0.0 10042447
21:00+19sse61771100 1.0 1003849